CWLEESTJE Weather Reports


Display with metric or nautical units.
time (UTC)temp
F
wind
direction
speed
MPH
gust
MPH
rain 1hr
in
rain 24hr
in
rain mn
in
humidity
%
barometer
mb
20260504081530 59 313 4.0 6.0 0.00 0.91 0.00 90
20260504080543 58 296 1.0 5.0 0.00 0.91 0.00 91
20260504050533 50 302 2.0 6.0 0.00 1.14 0.00 93
20260504045525 50 302 5.0 6.0 0.00 1.14 0.00 93
20260504044559 50 302 4.0 5.0 0.00 1.14 0.00 93
20260504043542 51 302 4.0 5.0 0.00 1.14 0.00 93
20260504042532 51 302 2.0 3.0 0.00 1.14 0.00 93
20260504041534 51 302 3.0 5.0 0.00 1.14 0.00 93
20260504040548 52 302 4.0 6.0 0.00 1.14 0.00 93
20260504035531 52 302 4.0 5.0 0.00 1.14 0.00 93
20260504034544 52 302 3.0 5.0 0.00 1.14 0.00 93
20260504033527 53 302 2.0 3.0 0.00 1.14 0.00 93
20260504032532 53 302 3.0 7.0 0.00 1.14 0.00 93
20260504031526 53 301 5.0 6.0 0.00 1.14 0.00 93
20260504030525 53 298 1.0 4.0 0.00 1.14 0.00 93
20260504025538 54 298 1.0 3.0 0.00 1.14 0.00 93
20260504024543 54 298 2.0 2.0 0.00 1.14 0.00 93
20260504023535 54 298 1.0 5.0 0.00 1.14 0.00 93
20260504022539 54 298 4.0 5.0 0.00 1.14 0.00 92
20260504021533 55 298 3.0 5.0 0.00 1.14 0.00 93
20260504020537 56 298 2.0 6.0 0.00 1.14 0.00 93
20260504015551 56 298 5.0 6.0 0.00 1.14 0.00 93
20260504014530 56 298 3.0 7.0 0.00 1.14 0.00 93
20260504013544 56 302 3.0 6.0 0.00 1.14 0.00 93
20260504012528 56 302 4.0 5.0 0.00 1.14 0.00 93
20260504011601 56 302 4.0 4.0 0.00 1.14 0.00 93
20260504010544 56 302 3.0 6.0 0.00 1.14 0.00 93
20260504005537 55 302 4.0 5.0 0.00 1.14 0.00 94
20260504004610 55 303 3.0 4.0 0.00 1.14 0.00 93
20260504003528 54 303 0.0 2.0 0.00 1.14 0.00 93
20260504002533 54 302 0.0 1.0 0.00 1.14 0.00 93
20260504001525 54 303 1.0 2.0 0.00 1.14 0.00 93
20260504000559 53 303 1.0 5.0 0.00 1.14 0.00 93
20260503235542 53 290 1.0 6.0 0.00 1.14 0.00 92
20260503234525 54 179 0.0 0.0 0.00 1.14 0.00 92
20260503233537 54 179 0.0 0.0 0.00 1.14 0.00 92
20260503232548 54 180 0.0 0.0 0.00 1.14 0.00 92
20260503231531 54 180 0.0 0.0 0.00 1.14 0.00 92
20260503230604 55 179 0.0 0.0 0.00 1.14 0.00 92
20260503225526 55 180 1.0 2.0 0.00 1.14 0.00 92
20260503224540 54 180 2.0 4.0 0.00 1.14 0.00 92
20260503223523 55 180 2.0 2.0 0.00 1.14 0.00 91
20260503222526 55 180 1.0 2.0 0.00 1.14 0.00 91
20260503221519 56 180 2.0 3.0 0.00 1.14 0.00 91
20260503220519 56 180 2.0 4.0 0.00 1.14 0.00 91
20260503215532 56 179 1.0 4.0 0.00 1.14 0.23 91
20260503214535 57 179 2.0 3.0 0.00 1.14 0.23 91
20260503213528 57 179 2.0 5.0 0.00 1.14 0.23 91
20260503212533 57 176 4.0 7.0 0.00 1.14 0.23 91
20260503211545 57 171 4.0 7.0 0.00 1.14 0.23 91
20260503210528 57 167 7.0 10.0 0.00 1.14 0.23 92
20260503205543 57 178 4.0 7.0 0.00 1.14 0.23 91
20260503204522 57 163 5.0 10.0 0.00 1.14 0.23 91
20260503203527 57 163 4.0 8.0 0.00 1.14 0.23 92
20260503202519 58 155 5.0 8.0 0.00 1.14 0.23 92
20260503201523 58 164 5.0 9.0 0.00 1.14 0.23 91
20260503200535 58 165 4.0 6.0 0.00 1.14 0.23 92
20260503195518 58 157 4.0 7.0 0.00 1.14 0.23 92
20260503194532 58 144 6.0 8.0 0.00 1.14 0.23 92
20260503193536 58 150 5.0 7.0 0.00 1.14 0.23 92
20260503192544 58 159 5.0 7.0 0.00 1.14 0.23 92
20260503191527 58 157 6.0 8.0 0.00 1.14 0.23 92
20260503190540 58 164 5.0 6.0 0.00 1.14 0.23 92
20260503185533 58 165 4.0 5.0 0.00 1.18 0.23 92
20260503184516 58 165 3.0 5.0 0.00 1.18 0.23 92
20260503183530 59 165 4.0 6.0 0.00 1.18 0.23 92
20260503182535 59 166 4.0 6.0 0.00 1.18 0.23 92
20260503181544 59 171 4.0 6.0 0.00 1.18 0.23 92
20260503180528 59 171 4.0 6.0 0.00 1.18 0.23 92
20260503175541 59 169 3.0 6.0 0.00 1.50 0.23 92
20260503174526 59 175 4.0 7.0 0.00 1.50 0.23 92
20260503173530 60 173 5.0 8.0 0.00 1.50 0.23 92
20260503172522 60 178 6.0 8.0 0.00 1.50 0.23 92
20260503171555 60 184 6.0 9.0 0.04 1.50 0.23 92
20260503170517 60 186 4.0 7.0 0.04 1.50 0.23 92
20260503150533 58 213 6.0 7.0 0.08 1.26 0.18 91
20260503130546 65 194 11.0 16.0 0.00 0.63 0.06 83
20260503110521 62 236 11.0 13.0 0.00 0.63 0.06 89